{"data":{"norad_id":45245,"intl_designator":"2020-013A","name":"JCSAT-17","alt_names":[],"object_type":"PAYLOAD","status":"ACTIVE","operator":null,"country":"JPN","launch_date":"2020-02-18","launch_site_code":"FRGUI","launch_vehicle":null,"mission":null,"orbit_class":"UNKNOWN","rcs_meters":null,"size_class":null,"mass_kg":null,"dimensions":null,"purposes":["comms"],"wikipedia_slug":null,"has_3d_model":false,"image_url":null,"decayed_at":null,"tle_current":{"epoch":"2026-09-19T20:28:51.510144Z","epoch_age_seconds":77837,"freshness":"FRESH","line1":"1 45245U 20013A   26262.85337396 -.00000316  00000+0  00000+0 0  9997","line2":"2 45245   5.3981 357.7372 0004442 178.8893 265.3396  1.00272273 24183","mean_motion":1.00272273,"eccentricity":0.0004442,"inclination_deg":5.3981,"raan_deg":357.7372,"arg_perigee_deg":178.8893,"mean_anomaly_deg":265.3396,"bstar":0,"rev_number":2418,"period_min":1436.089914906,"perigee_km":35767.728644462,"apogee_km":35805.1876708,"semimajor_km":42164.595157631,"source":"CELESTRAK","updated_at":"2026-09-20T09:00:35.292839Z"}}}